This is the latest recevied weather packets stored in our database for station/object WB3IGR. If no packets are shown the sender has not sent any weather packets the latest 10 day(s).
| Time | Temp. | Humidity | Pressure | Rain* | Wind** | Luminosity | Snow |
|---|---|---|---|---|---|---|---|
| 1778031033 | 22.22° C | 49% | 1010.6 hPa | 0 mm | - | 0 W/m² | - |
| 1778030729 | 22.22° C | 48% | 1010.6 hPa | 0 mm | - | 0 W/m² | - |
| 1778030426 | 22.22° C | 48% | 1010.5 hPa | 0 mm | - | 0 W/m² | - |
| 1778030124 | 22.22° C | 48% | 1010.4 hPa | 0 mm | - | 0 W/m² | - |
| 1778029820 | 22.78° C | 48% | 1010.3 hPa | 0 mm | - | 0 W/m² | - |
| 1778029514 | 22.78° C | 48% | 1010.2 hPa | 0 mm | - | 0 W/m² | - |
| 1778029210 | 22.78° C | 48% | 1010.4 hPa | 0 mm | - | 0 W/m² | - |
| 1778028907 | 22.78° C | 49% | 1010.2 hPa | 0 mm | - | 0 W/m² | - |
| 1778028602 | 22.78° C | 48% | 1010 hPa | 0 mm | - | 0 W/m² | - |
| 1778028301 | 22.78° C | 48% | 1009.9 hPa | 0 mm | - | 0 W/m² | - |
| 1778027996 | 23.33° C | 47% | 1010.1 hPa | 0 mm | - | 0 W/m² | - |
| 1778027693 | 23.33° C | 46% | 1009.8 hPa | 0 mm | - | 0 W/m² | - |
| 1778027389 | 23.89° C | 44% | 1010 hPa | 0 mm | - | 0 W/m² | - |
| 1778027085 | 23.89° C | 44% | 1010 hPa | 0 mm | - | 0 W/m² | - |
| 1778026781 | 23.33° C | 46% | 1009.8 hPa | 0 mm | - | 0 W/m² | - |
| 1778026478 | 23.33° C | 46% | 1009.8 hPa | 0 mm | - | 0 W/m² | - |
| 1778026175 | 23.33° C | 48% | 1009.6 hPa | 0 mm | - | 0 W/m² | - |
| 1778025873 | 23.33° C | 49% | 1009.9 hPa | 0 mm | - | 0 W/m² | - |
| 1778025570 | 23.89° C | 47% | 1009.7 hPa | 0 mm | - | 0 W/m² | - |
| 1778025268 | 23.89° C | 48% | 1009.7 hPa | 0 mm | - | 2 W/m² | - |
| 1778024964 | 23.89° C | 48% | 1009.7 hPa | 0 mm | - | 3 W/m² | - |
| 1778024662 | 23.89° C | 48% | 1009.6 hPa | 0 mm | - | 6 W/m² | - |
| 1778024358 | 23.89° C | 48% | 1009.7 hPa | 0 mm | - | 10 W/m² | - |
| 1778024056 | 24.44° C | 47% | 1009.5 hPa | 0 mm | - | 13 W/m² | - |
| 1778023753 | 24.44° C | 47% | 1009.5 hPa | 0 mm | - | 20 W/m² | - |
* Rain latest hour (hover to see other rain measurements)
** Current wind speed in m/s (hover to see current wind gust speed)